Regional Weather Roundup
Issued by NWS

Home | Current Version | Previous Version | Graphics & Text | Print | Product List | Glossary On
Versions: 1 2 3 4 5 6 7 8 9 10 11 12 13 14 15 16 17 18 19 20 21 22 23 24 25 26 27 28 29 30 31 32 33 34 35 36 37 38 39 40 41 42 43 44 45 46 47 48 49 50
000
ASUS43 KLOT 240907
RWRIL

ILLINOIS REGIONAL WEATHER ROUNDUP
NATIONAL WEATHER SERVICE CHICAGO/ROMEOVILLE IL
400 AM CDT FRI MAR 24 2017

NOTE: "FAIR" INDICATES FEW OR NO CLOUDS BELOW 12,000 FEET WITH NO
SIGNIFICANT WEATHER AND/OR OBSTRUCTIONS TO VISIBILITY.

* THESE STATIONS ARE NOT UNDER NWS QUALITY CONTROL. THEY ALSO MAY NOT
  REPORT WEATHER SUCH AS PRECIPITATION OR FOG.

ILZ001-002-007-009-015-016-024-241000-
NORTHWEST ILLINOIS

CITY           SKY/WX    TMP DP  RH WIND       PRES   REMARKS
MOLINE         CLOUDY    54  44  69 S12       29.85F
STERLING*      CLOUDY    48  42  80 VRB5      29.88F
SAVANNA*       CLOUDY    44  40  86 S8        29.85F
$$

ILZ003-004-008-010-011-017-018-241000-
NORTH CENTRAL ILLINOIS

CITY           SKY/WX    TMP DP  RH WIND       PRES   REMARKS
ROCKFORD       CLOUDY    45  38  76 S9        29.90F
FREEPORT*      PTCLDY    46  40  81 S5        29.89S
ROCHELLE*      CLOUDY    42  38  83 S9        29.90F
DE KALB*       CLOUDY    43  38  83 S15       29.90F
PERU*          CLOUDY    46  40  79 S13       29.92F
$$

ILZ005-006-012>014-019>023-241000-
NORTHEAST ILLINOIS

CITY           SKY/WX    TMP DP  RH WIND       PRES   REMARKS
CHICAGO-OHARE  CLOUDY    47  37  68 S9        29.91F
CHICAGO-MIDWAY CLOUDY    48  38  68 S8        29.94F
AURORA         CLOUDY    45  37  73 S9        29.92F
LANSING*       PTCLDY    42  38  83 S5        29.97S
JOLIET*        PTCLDY    49  41  74 S6        29.94F
WAUKEGAN       CLOUDY    48  40  73 SW13      29.89F
DUPAGE AIRPORT CLOUDY    46  40  79 S10       29.91F
KANKAKEE*      PTCLDY    48  40  73 CALM      29.96S
WHEELING       CLOUDY    47  40  76 S10       29.93F
MORRIS*        CLOUDY    45  38  78 CALM      29.93F
ROMEOVILLE*    CLOUDY    45  40  85 S9        29.93F
NORTHERLY ISL    N/A     47  35  63 S5          N/A
$$

LMZ740>746-241000-
SOUTHERN LAKE MICHIGAN

STATION/POSITION SKY/WX   TEMP    WIND        PRES    VSBY  WAVE
                          AIR SEA DIR/SP/G                  HT/PER
                          (F)     (DEG/KT/KT) (MB)    (MI)  (FT/S)
HARRISON CRIB              48     190/ 21/ 21   N/A
BURNHAM HARBOR             44     160/  6/  9   N/A
CALUMET HARBOR             47     160/  5/  7 1013.8F
BURNS HARBOR               49     190/ 10/ 14 1015.2F
MICHIGAN CITY              50     160/  7/ 10   N/A
$$

ILZ025>027-034>036-040-047-049-050-058-095>099-241000-
WEST-CENTRAL ILLINOIS

CITY           SKY/WX    TMP DP  RH WIND       PRES   REMARKS
QUINCY         CLOUDY    58  48  69 S12       29.87F
GALESBURG*     CLOUDY    47  42  82 SE6       29.89S
MACOMB*        CLOUDY    47  43  88 SE8       29.92R
JACKSONVILLE*  CLOUDY    51  44  77 S8        29.92S
PITTSFIELD*    PTCLDY    53  47  78 E5        29.91S
$$

ILZ028>032-037-038-041>044-048-051>054-059>061-241000-
CENTRAL ILLINOIS

CITY           SKY/WX    TMP DP  RH WIND       PRES   REMARKS
PONTIAC        CLOUDY    50  43  78 S8        29.94F
BLOOMINGTON    PTCLDY    46  41  82 S12       29.95S
DECATUR        CLOUDY    53  44  71 S17       29.95F
PEORIA         CLOUDY    46  41  82 S10       29.92F
LACON*         CLOUDY    51  42  71 S8G16     29.91S
LINCOLN*       CLOUDY    47  43  85 S5        29.94S
SPRINGFIELD    CLOUDY    52  44  74 S12       29.94S
TAYLORVILLE    CLOUDY    52  45  76 S16       29.94F
$$

ILZ033-039-045-046-055>057-062-063-241000-
EAST-CENTRAL ILLINOIS

CITY           SKY/WX    TMP DP  RH WIND       PRES   REMARKS
CHAMPAIGN      CLOUDY    52  42  69 S15       29.96F
RANTOUL*       CLOUDY    50  44  80 S7        29.97S
MATTOON        CLEAR     55  46  71 S14G23    29.97F
PARIS*         PTCLDY    52  44  75 S12       30.01S
$$

ILZ079-100>102-241000-
SOUTHWEST ILLINOIS

CITY           SKY/WX    TMP DP  RH WIND       PRES   REMARKS
ALTON          PTCLDY    46  42  86 E3        29.94F
BELLEVILLE     CLOUDY    48  46  93 SE3       29.94F
CAHOKIA*       CLOUDY    52  44  74 SE5       29.93F
SPARTA*        CLEAR     64  52  65 S15G24    29.97F
$$

ILZ064>066-069>071-074>076-080>082-084>086-088>090-092>094-241000-
SOUTH-CENTRAL ILLINOIS

CITY           SKY/WX    TMP DP  RH WIND       PRES   REMARKS
CARBONDALE     CLEAR     60  50  69 S14       30.00F
CAIRO*         CLEAR     63  52  68 S16       30.05S
EFFINGHAM*     CLOUDY    52  46  78 SE10      30.01F
MARION         CLEAR     61  50  67 S15G21    30.02F
MT. VERNON     CLEAR     56  48  74 S8        30.00F
CENTRALIA*     CLEAR     56  49  76 S12       29.98S
SALEM*         CLEAR     56  46  68 SE7       29.99F
METROPOLIS*    CLEAR     64  54  69 S8        30.07F
$$

ILZ067-068-072-073-078-083-087-091-241000-
SOUTHEAST ILLINOIS

CITY           SKY/WX    TMP DP  RH WIND       PRES   REMARKS
LAWRENCEVILLE  CLEAR     54  45  71 S13       30.04F
FLORA*         CLEAR     53  46  77 S9        30.02R
FAIRFIELD*     CLEAR     56  48  72 S8        30.01F
HARRISBURG*    CLEAR     61  52  71 S10       30.04F
ROBINSON*      PTCLDY    55  45  69 S15G21    30.03S
CARMI*         CLEAR     53  47  81 S12       30.03F
$$

ABBREVIATIONS USED IN REMARKS
   TC - TEMPERATURE IN CELSIUS
  WCI - WIND CHILL INDEX
   HX - HEAT INDEX
  VSB - VISIBILITY
$$




USA.gov is the U.S. government's official web portal to all federal, state and local government web resources and services.